Flag for Qatar Weather past 2 weeks in Al Khor, Qatar

Now
88 °F

Clear.


Feels Like: 98 °F
Forecast: 80 / 101 °F
Wind: 3 mph from North

Location: Doha International Airport

Current Time: Sep 15, 2014 at 5:06:51 AM

Latest Report: Sep 15, 2014 at 4:30 AM


Visibility: 10 mi

Pressure: 29.65 "Hg

Humidity: 66%

Dew point: 75 °F

Location of Al KhorLocation

Historic Weather in Al Khor — Graph

°F

Al Khor temperature yesterday

Maximum temperature yesterday: 102 °F (at 12:00 PM)
Minimum temperature yesterday: 84 °F (at 6:00 AM)
Average temperature yesterday: 95 °F

Past Weeks' High & Low Weather Summary

 TemperatureHumidityPressure
High113 °F (Sep 5, 12:00 PM)100% (Sep 3, 2:30 AM)29.74 "Hg (Sep 3, 2:30 AM)
Low70 °F (Sep 3, 2:30 AM)8% (Sep 12, 3:00 PM)29.47 "Hg (Sep 1, 4:00 PM)
Average97 °F49%29.60 "Hg
* Reported Aug 31 3:00 AM — Sep 15 3:30 AM, Al Khor, Weather by CustomWeather, © 2014

Note: Actual official high and low records may vary slightly from our data, if they occured in-between our weather recording intervals... More about our weather records

Advertising

Al Khor weather history for previous 24 hours

 ConditionsComfort  
Time TempWeatherWind HumidityBarometerVisibility
3:30 AM
Sep 15
88 °FPassing clouds.5 mph66%29.65 "HgN/A
2:00 AM90 °FPassing clouds.5 mph63%29.62 "HgN/A
1:00 AM91 °FClear.1 mph63%29.65 "Hg10 mi
12:00 AM91 °FClear.1 mph63%29.65 "Hg10 mi
11:30 PM
Sep 14
91 °FPassing clouds.3 mph52%29.65 "HgN/A
11:00 PM93 °FPassing clouds.3 mph41%29.65 "HgN/A
10:30 PM93 °FPassing clouds.6 mph44%29.65 "HgN/A
10:00 PM91 °FClear.3 mph46%29.68 "Hg10 mi
9:30 PM95 °FClear.5 mph39%29.68 "Hg10 mi
9:00 PM95 °FClear.6 mph39%29.68 "Hg10 mi
8:30 PM95 °FClear.6 mph39%29.68 "Hg10 mi
8:00 PM95 °FClear.6 mph44%29.68 "Hg10 mi
7:30 PM95 °FClear.6 mph41%29.68 "Hg10 mi
7:00 PM95 °FClear.6 mph41%29.65 "Hg10 mi
6:30 PM95 °FClear.6 mph39%29.65 "Hg10 mi
6:00 PM97 °FClear.6 mph37%29.65 "Hg10 mi
5:30 PM97 °FSunny.8 mph34%29.65 "Hg10 mi
5:00 PM99 °FSunny.9 mph27%29.65 "Hg10 mi
4:30 PM100 °FSunny.10 mph24%29.65 "Hg10 mi
4:00 PM102 °FSunny.10 mph23%29.62 "Hg10 mi
3:30 PM102 °FSunny.10 mph23%29.62 "Hg10 mi
3:00 PM102 °FPassing clouds.10 mph26%29.65 "HgN/A
2:30 PM100 °FPassing clouds.8 mph37%29.65 "HgN/A
2:00 PM100 °FPassing clouds.9 mph40%29.65 "HgN/A
1:30 PM100 °FPassing clouds.10 mph37%29.65 "HgN/A
1:00 PM100 °FPassing clouds.12 mph31%29.65 "HgN/A
12:30 PM100 °FPassing clouds.8 mph35%29.65 "HgN/A
12:00 PM102 °FPassing clouds.9 mph37%29.65 "HgN/A
11:30 AM100 °FSunny.10 mph35%29.68 "Hg10 mi
11:00 AM100 °FSunny.10 mph37%29.68 "Hg10 mi
10:30 AM100 °FPassing clouds.8 mph42%29.68 "HgN/A
10:00 AM99 °FSunny.8 mph42%29.71 "Hg10 mi
9:30 AM97 °FPassing clouds.9 mph47%29.71 "HgN/A
9:00 AM97 °FPassing clouds.8 mph50%29.71 "HgN/A
8:30 AM95 °FPassing clouds.8 mph53%29.71 "HgN/A
8:00 AM93 °FClear.5 mph56%29.71 "Hg6 mi
7:30 AM91 °FClear.5 mph59%29.71 "Hg5 mi
7:00 AM90 °FClear.5 mph63%29.68 "Hg5 mi
6:00 AM84 °FClear.2 mph66%29.65 "Hg5 mi
5:00 AM88 °FPassing clouds.5 mph66%29.65 "HgN/A
Weather by CustomWeather, © 2014

See weather overviewHow to use our weather pages